Location: Dompnac
(44.5644°N, 4.1026°E)
Time: 01:56:07
(UTC+00:00)

USA 234 - Pass Details

Date: 25 January 2021
Orbit: 1100 x 1107 km, 123.0° (Epoch: 01 March)

Event Time Altitude Azimuth Distance (km) Brightness Sun altitude
Exits shadow 20:19:36 36° 333° (NNW) 1,679 4.4 -38.4°
Drops below altitude 10° 20:23:27 10° 314° (NW) 2,966 6.1 -39.1°
Sets 20:25:59 0° 310° (NW) 3,927 6.9 -39.5°
